Bellefontaine, OH

10:01 AM EDT on August 24, 2016 (GMT -0400)
Bellefontaine

Weather History for KEDJ - January, 2014

Change the Weather History Date:

Saturday, January 4, 2014

  Actual Average (KDAY) Record (KDAY)
Temperature  
Mean Temperature 21 °F 28 °F  
Max Temperature 32 °F 35 °F 64 °F (1997)
Min Temperature 10 °F 21 °F -18 °F (1904)
Degree Days  
Heating Degree Days 44 37  
Month to date heating degree days 148  
Since 1 July heating degree days 2307  
Cooling Degree Days 0 0  
Month to date cooling degree days 0  
Year to date cooling degree days 0  
Moisture  
Dew Point 13 °F    
Average Humidity 62    
Maximum Humidity 73    
Minimum Humidity 51    
Precipitation  
Precipitation 0.00 in 0.10 in 2.50 in (2004)
Month to date precipitation 0.40  
Year to date precipitation 0.40  
Snow  
Snow 0.00 in 0.20 in 4.20 in (1914)
Month to date snowfall 0.9  
Since 1 July snowfall 6.4  
Snow Depth -    
Sea Level Pressure  
Sea Level Pressure 30.04 in    
Wind  
Wind Speed 15 mph (South)    
Max Wind Speed 24 mph    
Max Gust Speed 33 mph    
Visibility 10 miles    
Events      
T = Trace of Precipitation, MM = Missing Value Source: NWS Daily Summary

Daily Weather History Graph

Daily Weather History Graph

Search for Another Location

Airport or City:

Trip Planner

Search our weather history database for the weather conditions in past years. The results will help you decide how hot, cold, wet, or windy it might be!

Date:

Astronomy

Jan. 04, 2014 Rise Set
Actual Time 7:58 AM EST 5:22 PM EST
Civil Twilight 7:27 AM EST 5:52 PM EST
Nautical Twilight 6:53 AM EST 6:26 PM EST
Astronomical Twilight 6:20 AM EST 6:59 PM EST
Moon 10:02 AM EST (1/4) 9:41 PM EST (1/4)
Length of Visible Light 10h 24m
Length of Day
9h 23m
Waxing Crescent, 15% of the Moon is Illuminated
Jan 4
Waxing Crescent
Jan 7
First Quarter
Jan 15
Full
Jan 24
Last Quarter
Jan 30
New

Hourly Weather History & Observations

Time (EST) Temp. Windchill Dew Point Humidity Pressure Visibility Wind Dir Wind Speed Gust Speed Precip Events Conditions
12:10 AM 10.4 °F -6.0 °F 3.2 °F 73% 30.16 in 10.0 mi SSE 15.0 mph - 0.00 in   Clear
12:30 AM 12.2 °F -3.1 °F 3.2 °F 67% 30.16 in 10.0 mi South 13.8 mph - 0.00 in   Clear
12:50 AM 12.2 °F -2.5 °F 3.2 °F 67% 30.15 in 10.0 mi South 12.7 mph - 0.00 in   Clear
1:10 AM 12.2 °F -3.1 °F 3.2 °F 67% 30.14 in 10.0 mi SSE 13.8 mph - 0.00 in   Clear
1:30 AM 12.2 °F -3.1 °F 3.2 °F 67% 30.13 in 10.0 mi SSE 13.8 mph - 0.00 in   Clear
1:50 AM 12.2 °F -4.8 °F 3.2 °F 67% 30.12 in 10.0 mi SSE 17.3 mph - 0.00 in   Clear
2:10 AM 12.2 °F -3.7 °F 5.0 °F 73% 30.13 in 10.0 mi South 15.0 mph - 0.00 in   Clear
2:30 AM 14.0 °F -2.0 °F 5.0 °F 67% 30.13 in 10.0 mi South 16.1 mph - 0.00 in   Clear
2:50 AM 14.0 °F -1.4 °F 5.0 °F 67% 30.13 in 10.0 mi South 15.0 mph - 0.00 in   Clear
3:10 AM 14.0 °F -2.0 °F 5.0 °F 67% 30.13 in 10.0 mi South 16.1 mph 21.9 mph 0.00 in   Clear
3:30 AM 14.0 °F -2.5 °F 5.0 °F 67% 30.12 in 10.0 mi South 17.3 mph - 0.00 in   Clear
3:50 AM 14.0 °F -2.5 °F 5.0 °F 67% 30.11 in 10.0 mi South 17.3 mph 23.0 mph 0.00 in   Clear
4:10 AM 14.0 °F -2.5 °F 5.0 °F 67% 30.10 in 10.0 mi South 17.3 mph 23.0 mph 0.00 in   Clear
4:30 AM 14.0 °F -3.0 °F 5.0 °F 67% 30.10 in 10.0 mi South 18.4 mph 23.0 mph 0.00 in   Clear
4:50 AM 14.0 °F -2.5 °F 5.0 °F 67% 30.09 in 10.0 mi SSE 17.3 mph - 0.00 in   Clear
5:10 AM 14.0 °F -2.5 °F 5.0 °F 67% 30.08 in 10.0 mi South 17.3 mph 21.9 mph 0.00 in   Clear
5:30 AM 14.0 °F -3.0 °F 5.0 °F 67% 30.07 in 10.0 mi South 18.4 mph 24.2 mph 0.00 in   Clear
5:50 AM 14.0 °F -2.0 °F 6.8 °F 73% 30.07 in 10.0 mi South 16.1 mph - 0.00 in   Clear
6:10 AM 14.0 °F -2.0 °F 6.8 °F 73% 30.07 in 10.0 mi South 16.1 mph - 0.00 in   Clear
6:30 AM 14.0 °F -0.8 °F 6.8 °F 73% 30.07 in 10.0 mi South 13.8 mph - 0.00 in   Clear
6:50 AM 14.0 °F -0.8 °F 6.8 °F 73% 30.07 in 10.0 mi South 13.8 mph - 0.00 in   Clear
7:10 AM 15.8 °F 1.4 °F 6.8 °F 68% 30.06 in 10.0 mi SSE 13.8 mph - 0.00 in   Clear
7:30 AM 17.6 °F 4.3 °F 8.6 °F 68% 30.05 in 10.0 mi South 12.7 mph - 0.00 in   Clear
7:50 AM 19.4 °F 5.0 °F 8.6 °F 63% 30.04 in 10.0 mi South 16.1 mph - 0.00 in   Clear
8:10 AM 21.2 °F 6.0 °F 8.6 °F 58% 30.04 in 10.0 mi South 19.6 mph 25.3 mph 0.00 in   Clear
8:30 AM 21.2 °F 5.2 °F 10.4 °F 63% 30.03 in 10.0 mi South 21.9 mph 27.6 mph 0.00 in   Clear
8:50 AM 23.0 °F 7.6 °F 10.4 °F 59% 30.03 in 10.0 mi South 21.9 mph 28.8 mph 0.00 in   Clear
9:10 AM 24.8 °F 9.6 °F 10.4 °F 54% 30.03 in 10.0 mi South 23.0 mph 29.9 mph 0.00 in   Clear
9:30 AM 26.6 °F 11.7 °F 12.2 °F 55% 30.03 in 10.0 mi South 24.2 mph 32.2 mph 0.00 in   Clear
9:50 AM 26.6 °F 11.7 °F 12.2 °F 55% 30.03 in 10.0 mi South 24.2 mph 33.4 mph 0.00 in   Clear
10:10 AM 26.6 °F 12.4 °F 12.2 °F 55% 30.04 in 10.0 mi SSW 21.9 mph 31.1 mph 0.00 in   Clear
10:30 AM 26.6 °F 13.1 °F 12.2 °F 55% 30.03 in 10.0 mi South 19.6 mph 29.9 mph 0.00 in   Clear
10:50 AM 28.4 °F 16.2 °F 12.2 °F 51% 30.02 in 10.0 mi South 17.3 mph 28.8 mph 0.00 in   Clear
11:10 AM 28.4 °F 16.6 °F 14.0 °F 55% 30.02 in 10.0 mi South 16.1 mph 26.5 mph 0.00 in   Clear
11:30 AM 28.4 °F 16.6 °F 14.0 °F 55% 30.03 in 10.0 mi SSW 16.1 mph 20.7 mph 0.00 in   Clear
11:50 AM 28.4 °F 17.0 °F 14.0 °F 55% 30.02 in 10.0 mi SSW 15.0 mph 20.7 mph 0.00 in   Clear
12:10 PM 28.4 °F 16.6 °F 14.0 °F 55% 30.01 in 10.0 mi SSW 16.1 mph - 0.00 in   Clear
12:30 PM 30.2 °F 18.5 °F 14.0 °F 51% 30.00 in 10.0 mi South 17.3 mph 24.2 mph 0.00 in   Clear
12:50 PM 30.2 °F 18.9 °F 15.8 °F 55% 30.00 in 10.0 mi SSW 16.1 mph 21.9 mph 0.00 in   Clear
1:10 PM 30.2 °F 18.1 °F 15.8 °F 55% 29.99 in 10.0 mi South 18.4 mph 21.9 mph 0.00 in   Clear
1:30 PM 30.2 °F 18.5 °F 15.8 °F 55% 29.98 in 10.0 mi South 17.3 mph 21.9 mph 0.00 in   Clear
1:50 PM 30.2 °F 19.3 °F 17.6 °F 60% 29.98 in 10.0 mi South 15.0 mph 21.9 mph 0.00 in   Clear
2:10 PM 32.0 °F 22.1 °F 17.6 °F 55% 29.98 in 10.0 mi South 13.8 mph - 0.00 in   Clear
2:30 PM 32.0 °F 21.2 °F 17.6 °F 55% 29.98 in 10.0 mi South 16.1 mph 21.9 mph 0.00 in   Clear
2:50 PM 32.0 °F 21.6 °F 17.6 °F 55% 29.97 in 10.0 mi South 15.0 mph 23.0 mph 0.00 in   Clear
3:10 PM 32.0 °F 21.2 °F 19.4 °F 60% 29.97 in 10.0 mi South 16.1 mph - 0.00 in   Clear
3:30 PM 32.0 °F 21.6 °F 19.4 °F 60% 29.97 in 10.0 mi South 15.0 mph 21.9 mph 0.00 in   Clear
3:50 PM 32.0 °F 20.8 °F 19.4 °F 60% 29.98 in 10.0 mi South 17.3 mph 24.2 mph 0.00 in   Clear
4:10 PM 32.0 °F 21.2 °F 17.6 °F 55% 29.98 in 10.0 mi South 16.1 mph 25.3 mph 0.00 in   Clear
4:30 PM 32.0 °F 21.6 °F 17.6 °F 55% 29.99 in 10.0 mi South 15.0 mph - 0.00 in   Clear
4:50 PM 32.0 °F 21.6 °F 17.6 °F 55% 29.99 in 10.0 mi South 15.0 mph - 0.00 in   Clear
5:10 PM 32.0 °F 24.2 °F 19.4 °F 60% 29.99 in 10.0 mi South 9.2 mph - 0.00 in   Clear
5:30 PM 32.0 °F 24.2 °F 19.4 °F 60% 29.99 in 10.0 mi South 9.2 mph - 0.00 in   Mostly Cloudy
5:50 PM 32.0 °F 24.2 °F 19.4 °F 60% 29.99 in 10.0 mi South 9.2 mph - 0.00 in   Mostly Cloudy
6:10 PM 32.0 °F 23.6 °F 19.4 °F 60% 29.98 in 10.0 mi South 10.4 mph - 0.00 in   Overcast
6:30 PM 32.0 °F 24.2 °F 19.4 °F 60% 29.98 in 10.0 mi South 9.2 mph - 0.00 in   Mostly Cloudy
6:50 PM 30.2 °F 22.6 °F 19.4 °F 64% 29.99 in 10.0 mi South 8.1 mph - 0.00 in   Mostly Cloudy
7:10 PM 32.0 °F 23.6 °F 21.2 °F 64% 29.99 in 10.0 mi South 10.4 mph - 0.00 in   Mostly Cloudy
7:30 PM 32.0 °F 23.6 °F 21.2 °F 64% 29.99 in 10.0 mi South 10.4 mph - 0.00 in   Mostly Cloudy
7:50 PM 32.0 °F 23.0 °F 21.2 °F 64% 30.00 in 10.0 mi South 11.5 mph - 0.00 in   Overcast
8:10 PM 32.0 °F 24.2 °F 21.2 °F 64% 30.01 in 10.0 mi South 9.2 mph - 0.00 in   Mostly Cloudy
8:30 PM 32.0 °F 25.6 °F 21.2 °F 64% 30.01 in 10.0 mi South 6.9 mph - 0.00 in   Mostly Cloudy
8:50 PM 32.0 °F 25.6 °F 21.2 °F 64% 30.01 in 10.0 mi South 6.9 mph - 0.00 in   Overcast
9:10 PM 32.0 °F 26.4 °F 21.2 °F 64% 30.02 in 10.0 mi South 5.8 mph - 0.00 in   Overcast
9:30 PM 32.0 °F 26.4 °F 21.2 °F 64% 30.02 in 10.0 mi South 5.8 mph - 0.00 in   Overcast
9:50 PM 32.0 °F 25.6 °F 21.2 °F 64% 30.01 in 10.0 mi South 6.9 mph - 0.00 in   Overcast
10:10 PM 32.0 °F 25.6 °F 21.2 °F 64% 30.01 in 10.0 mi South 6.9 mph - 0.00 in   Overcast
10:30 PM 32.0 °F 25.6 °F 21.2 °F 64% 30.01 in 10.0 mi SSE 6.9 mph - 0.00 in   Overcast
10:50 PM 32.0 °F 25.6 °F 21.2 °F 64% 30.01 in 10.0 mi South 6.9 mph - 0.00 in   Overcast
11:10 PM 32.0 °F 25.6 °F 21.2 °F 64% 30.01 in 10.0 mi SSE 6.9 mph - 0.00 in   Overcast
11:30 PM 32.0 °F 25.6 °F 21.2 °F 64% 30.02 in 10.0 mi South 6.9 mph - 0.00 in   Overcast
11:50 PM 32.0 °F 25.6 °F 21.2 °F 64% 30.02 in 10.0 mi South 6.9 mph - 0.00 in   Overcast